Overview Statistics Trail Chart Weather Telemetry Raw packets
 

This is the latest recevied weather packets stored in our database for station/object K6CED. If no packets are shown the sender has not sent any weather packets the latest 10 day(s).

<< 6 7 8 9 10 11 12 >>
Time Temp. Humidity Pressure Rain* Wind** Luminosity Snow
1788625490 25° C 43% 1017.6 hPa 0 mm - 449 W/m² -
1788625185 23.33° C 45% 1017.4 hPa 0 mm - 521 W/m² -
1788624884 23.89° C 45% 1017.4 hPa 0 mm - 491 W/m² -
1788624582 23.33° C 46% 1017.7 hPa 0 mm - 477 W/m² -
1788624277 22.22° C 48% 1017.5 hPa 0 mm - 457 W/m² -
1788623976 21.67° C 50% 1017.5 hPa 0 mm - 437 W/m² -
1788623671 21.67° C 51% 1017.6 hPa 0 mm - 414 W/m² -
1788623370 20° C 54% 1017.4 hPa 0 mm - 394 W/m² -
1788623065 20° C 55% 1017.6 hPa 0 mm - 362 W/m² -
1788622761 19.44° C 56% 1017.6 hPa 0 mm - 281 W/m² -
1788622457 19.44° C 56% 1017.3 hPa 0 mm - 303 W/m² -
1788622156 19.44° C 57% 1017.4 hPa 0 mm - 282 W/m² -
1788621855 18.89° C 60% 1017.5 hPa 0 mm - 251 W/m² -
1788621551 18.33° C 60% 1017.4 hPa 0 mm - 263 W/m² -
1788621247 18.33° C 61% 1017.3 hPa 0 mm - 253 W/m² -
1788620946 17.78° C 62% 1017.1 hPa 0 mm - 240 W/m² -
1788620641 17.78° C 61% 1017.2 hPa 0 mm - 224 W/m² -
1788620338 17.78° C 60% 1017.3 hPa 0 mm - 209 W/m² -
1788620038 18.33° C 58% 1017.2 hPa 0 mm - 192 W/m² -
1788619732 18.33° C 58% 1017.4 hPa 0 mm - 173 W/m² -
1788619428 18.89° C 56% 1017 hPa 0 mm - 152 W/m² -
1788619126 17.22° C 60% 1017.1 hPa 0 mm - 127 W/m² -
1788618820 16.67° C 61% 1017.2 hPa 0 mm - 119 W/m² -
1788618519 16.11° C 63% 1017.1 hPa 0 mm - 99 W/m² -
1788618218 16.11° C 62% 1016.9 hPa 0 mm - 89 W/m² -

* Rain latest hour (hover to see other rain measurements)
** Current wind speed in m/s (hover to see current wind gust speed)